Regional Weather Roundup
Issued by NWS Goodland, KS

Home | Current Version | Previous Version | Graphics & Text | Print | Product List | Glossary Off
Versions: 1 2 3 4 5 6 7 8 9 10 11 12 13 14 15 16 17 18 19 20 21 22 23 24 25 26 27 28 29 30 31 32 33 34 35 36 37 38 39 40 41 42 43 44 45 46 47 48 49 50

000
ASUS43 KGLD 232208
RWRGLD

GOODLAND FORECAST AREA HOURLY WEATHER ROUNDUP
NATIONAL WEATHER SERVICE GOODLAND KS
400 PM MDT WED APR 23 2014

...OFFICIAL OBSERVATIONS...

CITY           SKY/WX    TMP DP  RH WIND       PRES   REMARKS
GOODLAND KS    MOSUNNY   79  41  25 NE23G31   29.51F
HILL CITY KS   CLOUDY    85  50  29 S22G36    29.50F
IMPERIAL NEB   SUNNY     78  29  16 N21G35    29.57F
MCCOOK NEB     PTSUNNY   80  42  25 N17       29.51F
AKRON CO       CLOUDY    65  32  29 N22G35    29.62R
BURLINGTON CO  MOSUNNY   77  37  23 NE20      29.54F
LIMON CO       CLOUDY    67  34  29 NE24G31   29.57F
$$

...UNOFFICIAL OBSERVATIONS...

CITY           SKY/WX    TMP DP  RH WIND       PRES   REMARKS
COLBY KS       PTSUNNY   81  46  30 NE16G25   29.50F
LENORA KS        N/A     83  32  16 SE24        N/A
LEOTI KS         N/A     84  32  15 S8          N/A
NORTON KS      MOSUNNY   79  45  29 S15G28    29.46F
OBERLIN KS     FAIR      82  41  23 N14       29.49F
SHARON SPRINGS   N/A     76  46  33 SE6G18      N/A
ST FRANCIS KS  SUNNY     77  30  18 NE23      29.52F
TRIBUNE KS     MOSUNNY   84  36  17 S24       29.49
WAKEENEY KS      N/A     84  45  25 MISG        N/A
TRENTON NEB      N/A     78  32  18 N18         N/A
KIT CARSON CO    N/A     83  25  12 MISG        N/A
WRAY CO        FAIR      75  30  19 NE22G29   29.57F
$$



USA.gov is the U.S. government's official web portal to all federal, state and local government web resources and services.